Warning: Javascript must be enabled to use all the features on this page!


Page Loading - Please Wait...

Click to hideNews Bulletins
  • Have your voice heard. Have a few minutes? We're surveying users about their experience with Water Data for the Nation (WDFN). Please take a few minutes to complete our online survey.
  • See the Water Data for the Nation Blog for the latest news and updates.

Peak Streamflow for the Nation

USGS 10155500 PROVO RIVER NEAR CHARLESTON, UT

Wasatch County, Utah
Hydrologic Unit Code 16020203
Latitude  40°29'03", Longitude 111°27'46" NAD27
Drainage area 359  square miles
Gage datum 5,427.04 feet above NAVD88
Output formats
Table
Graph
Tab-separated file
peakfq (watstore) format
Reselect output format
Water
Year
Date Gage
Height
(feet)
Stream-
flow
(cfs)
1938 1938-05-29 3.653 1,650
1939 1939-05-05 2.333 6336
1940 1940-05-16 2.813 7206
1941 1941-05-14 3.053 1,0306
1942 1942-05-27 3.563 1,3006
1943 1943-05-04 3.623 1,3306
1944 1944-06-02 3.223 1,6406
1945 1945-06-06 2.753 1,2506
1946 1946-04-21 3.613 1,2806
1947 1947-05-28 2.853 1,6206
1948 1948-05-20 3.453 1,1606
1949 1949-05-15 3.913 1,3306
1950 1950-06-02 4.273 1,7406
1992 1992-05-20 3.746 6716
1993 1993-05-22 6.29 2,2806
1994 1994-05-15 4.63 1,1106
1995 1995-06-16 5.73 1,8406
1996 1996-05-18 5.66 1,8206
1997 1997-05-26 5.79 1,9306
1998 1998-06-04 4.56 1,0606
1999 1999-05-26 6.11 2,2006
2000 2000-06-05 4.96 1,3106
2001 2001-06-03 4.35 9406
2002 2002-05-22 5.15 1,2606
2003 2003-06-17 5.38 1,4406
2004 2004-05-24 5.64 1,7206
2005 2005-06-03 7.47 2,3006
2006 2006-05-22 7.02 1,8506
2007 2007-08-21 4.94 5966
2008 2008-06-21 6.32 1,3706
2009 2009-06-04 7.02 1,8906
2010 2010-06-12 5.56 9066
2011 2011-07-07 7.57 2,3606
2012 2012-07-21 5.17 6366
2013 2013-08-28 4.30 3216
2014 2014-09-27 5.37 7336
2015 2015-08-03 5.21 6186
2016 2016-06-23 6.48 1,3006
2017 2017-06-05 7.27 2,1106
2018 2018-06-03 4.85 5676
2019 2019-06-24 7.23 2,0206
2020 2020-05-21 7.32 1,9406
2021 2021-08-19 4.92 6086
?
  Peak Gage-Height Qualification Codes.
?
  Peak Streamflow Qualification Codes.